Skip Page Navigation
NASA JPL Caltech
NASA Logo - Jet Propulsion Laboratory + View the NASA Portal
+ Center for Near-Earth Object Studies
JPL Home Earth Solar System Stars & Galaxies Technology
JPL Solar System Dynamics
BODIES ORBITS EPHEMERIDES TOOLS PHYSICAL DATA DISCOVERY FAQ SITE MAP
IMPORTANT: The SSD Announcement email list is now available. Major changes are coming in the near future, including possible hostname and/or URL changes. To be notified of such changes, subscribe to this email list.

Please visit this page for more details.


JPL Small-Body Database Browser
Search: [ help ]  
65197 (2002 CY282)
Classification: Main-belt Asteroid          SPK-ID: 2065197
Ephemeris | Orbit Diagram | Orbital Elements | Mission Design | Physical Parameters | Discovery Circumstances ]

[ show orbit diagram ]
Orbital Elements at Epoch 2458600.5 (2019-Apr-27.0) TDB
Reference: JPL 17 (heliocentric ecliptic J2000)
 Element Value Uncertainty (1-sigma)   Units 
e .04894168431390944 5.6757e-08  
a 2.178909620884143 1.1648e-08 au
q 2.072270114070291 1.209e-07 au
i 5.520761785272609 5.1445e-06 deg
node 69.22647308266127 6.5509e-05 deg
peri 65.64841101059521 0.00010219 deg
M 143.9266099348465 7.5712e-05 deg
tp 2458130.826727219852
(2018-Jan-12.32672722)
0.00024705 TDB
period 1174.781913347327
3.22
9.4204e-06
2.579e-08
d
yr
n .3064398556956377 2.4573e-09 deg/d
Q 2.285549127697994 1.2218e-08 au
  Orbit Determination Parameters
   # obs. used (total)      574  
   data-arc span      14439 days (39.53 yr)  
   first obs. used      1978-11-29  
   last obs. used      2018-06-11  
   planetary ephem.      DE431  
   SB-pert. ephem.      SB431-N16  
   condition code      0  
   norm. resid. RMS      .60577  
   source      ORB  
   producer      Otto Matic  
   solution date      2019-Jul-13 04:04:38  

Additional Information
 Earth MOID = 1.09407 au 
 Jupiter MOID = 2.71869 au 
 T_jup = 3.675 
[ show covariance matrix ]

Ephemeris | Orbit Diagram | Orbital Elements | Mission Design | Physical Parameters | Discovery Circumstances ]

Physical Parameter Table
Parameter Symbol Value Units Sigma Reference Notes
absolute magnitude H 16.4   n/a MPO337760  

65197 (2002 CY282)          Discovered 2002-Feb-08 by LINEAR at Socorro
Reference: 20030614/Numbers.arcLast Updated: 2004-04-19

Alternate Designations
 2002 CY282 = 1978 WA13 = 1999 GP63 = 2000 SG368 
Ephemeris | Orbit Diagram | Orbital Elements | Mission Design | Physical Parameters | Discovery Circumstances ]
ABOUT SSD CREDITS/AWARDS PRIVACY/COPYRIGHT GLOSSARY LINKS
FirstGov 2020-Jan-22 11:09 UT
(server date/time)  
NASA Home Page
Site Manager:   Ryan S. Park
Webmaster  Alan B. Chamberlin